User: anonymous   Login
Location: Bretagne
(43.8474°N, 0.4650°W)
Time: 10:58:42
(UTC+00:00)
Language:

BREEZE-M DEB (TANK) - Orbit

View from above orbital plane
View from above orbital plane
View from above satellite
View from above satellite

Ground track
Ground track

The orbit is defined by the following mean orbital elements,

1 36794U          26071.96860558 +.00000000 +00000-0 +15225-2 0 00002
2 36794  49.5014 290.3881 5433136  69.6086 339.2034  4.93869424    08
Epoch (UTC): 12 March 2026 23:14:47
Eccentricity: 0.5433136
inclination: 49.5014°
perigee height: 274 km
apogee height: 16101 km
right ascension of ascending node: 290.3881°
argument of perigee: 69.6086°
revolutions per day: 4.93869424
mean anomaly at epoch: 339.2034°

The dashed part of the orbit path shows where the satellite is in the earth's shadow,  

DLR